Retour au catalogue

CZ-4 DEB

ActifSSO
NORAD 35334·DEBRIS·🇨🇳 China

Lancé Oct 14, 1999 depuis Taiyuan Satellite Launch Center

Loading…

Prochains Passages (prochaines 24 heures)

TLE

FraisSource: Space-Track

Époque: Sep 14, 2026, 10:43 UTC

1 35334U 99057SN  26257.44677124  .00001583  00000-0  32566-3 0  9997
2 35334  98.4233 326.5097 0063361  96.6625 264.1791 14.60749664 81448

Suivez CZ-4 DEB en temps réel avec AllMySat

Download on the App Store